Flag for Germany Weather past 2 weeks in Halle, Saxony-Anhalt, Germany

Now
55 °F

Partly sunny.


Feels Like: 52 °F
Forecast: 40 / 50 °F
Wind: 12 mph from Northwest

Location: Leipzig-Schkeuditz

Current Time: Apr 27, 2015 at 1:02:45 PM

Latest Report: Apr 27, 2015 at 12:20 PM


Visibility: 4 mi

Pressure: 29.62 "Hg

Humidity: 88%

Dew point: 52 °F

Location of HalleLocation

Historic Weather in Halle — Graph

°F

Halle temperature yesterday

Maximum temperature yesterday: 68 °F (at 4:20 PM)
Minimum temperature yesterday: 52 °F (at 3:20 AM)
Average temperature yesterday: 58 °F

Past Weeks' High & Low Weather Summary

 TemperatureHumidityPressure
High73 °F (Apr 15, 2:50 PM)100% (Apr 18, 6:50 AM)30.45 "Hg (Apr 18, 6:50 AM)
Low34 °F (Apr 18, 5:50 AM)23% (Apr 21, 3:50 PM)29.56 "Hg (Apr 27, 5:20 AM)
Average51 °F63%30.09 "Hg
* Reported Apr 12 11:20 AM — Apr 27 11:50 AM, Halle, Weather by CustomWeather, © 2015

Note: Actual official high and low records may vary slightly from our data, if they occured in-between our weather recording intervals... More about our weather records

Advertising

Halle weather history for previous 24 hours

 ConditionsComfort  
Time TempWeatherWind HumidityBarometerVisibility
11:50 AM
Mon, Apr 27
57 °FLight rain. Partly sunny.9 mph88%29.59 "Hg5 mi
11:20 AM57 °FBroken clouds.8 mph94%29.59 "HgN/A
10:50 AM57 °FPartly sunny.6 mph94%29.59 "HgN/A
10:20 AM57 °FSprinkles. Broken clouds.5 mph88%29.56 "HgN/A
9:50 AM57 °FSprinkles. Partly sunny.8 mph88%29.56 "HgN/A
9:20 AM55 °FSprinkles. Partly sunny.5 mph94%29.56 "HgN/A
8:50 AM55 °FSprinkles. Partly sunny.6 mph94%29.56 "HgN/A
8:20 AM55 °FSprinkles. Partly sunny.8 mph88%29.56 "HgN/A
7:50 AM54 °FSprinkles. Broken clouds.6 mph94%29.59 "HgN/A
7:20 AM54 °FSprinkles. Broken clouds.8 mph94%29.56 "HgN/A
6:50 AM52 °FSprinkles. Passing clouds.6 mph100%29.56 "HgN/A
6:20 AM52 °FClear.1 mph94%29.56 "Hg10 mi
5:50 AM52 °FLight rain. Clear.9 mph94%29.59 "HgN/A
5:20 AM54 °FLight rain. Clear.7 mph88%29.56 "HgN/A
4:50 AM52 °FClear.8 mph94%29.59 "Hg10 mi
4:20 AM50 °FLight rain. Clear.8 mph94%29.59 "HgN/A
3:50 AM50 °FClear.6 mph94%29.59 "Hg10 mi
3:20 AM50 °FClear.7 mph94%29.62 "Hg10 mi
2:50 AM52 °FClear.6 mph88%29.62 "Hg10 mi
2:20 AM52 °FClear.6 mph94%29.62 "Hg10 mi
1:50 AM50 °FClear.7 mph100%29.65 "Hg10 mi
1:20 AM52 °FClear.8 mph94%29.65 "Hg10 mi
12:50 AM52 °FClear.9 mph100%29.68 "Hg10 mi
12:20 AM52 °FClear.8 mph94%29.68 "Hg10 mi
11:50 PM
Sun, Apr 26
54 °FClear.6 mph94%29.68 "Hg10 mi
11:20 PM52 °FClear.8 mph94%29.68 "Hg10 mi
10:50 PM52 °FClear.8 mph88%29.68 "Hg10 mi
10:20 PM54 °FClear.6 mph88%29.68 "Hg10 mi
9:50 PM55 °FClear.8 mph82%29.68 "Hg10 mi
9:20 PM57 °FPartly sunny.7 mph77%29.68 "HgN/A
8:50 PM57 °FScattered showers. Broken clouds.6 mph82%29.68 "HgN/A
8:20 PM59 °FScattered showers. Partly sunny.8 mph77%29.71 "HgN/A
7:50 PM61 °FBroken clouds.3 mph72%29.68 "HgN/A
7:20 PM61 °FBroken clouds.6 mph72%29.68 "HgN/A
6:50 PM61 °FBroken clouds.7 mph72%29.71 "HgN/A
6:20 PM61 °FScattered clouds.12 mph72%29.68 "HgN/A
5:50 PM61 °FSprinkles. Scattered clouds.17 mph68%29.71 "HgN/A
5:20 PM68 °FScattered clouds.12 mph46%29.68 "HgN/A
4:50 PM68 °FScattered clouds.12 mph49%29.71 "HgN/A
4:20 PM68 °FScattered clouds.10 mph53%29.71 "HgN/A
3:50 PM66 °FScattered clouds.10 mph56%29.71 "HgN/A
3:20 PM64 °FScattered clouds.13 mph64%29.71 "HgN/A
2:50 PM66 °FScattered clouds.15 mph52%29.71 "HgN/A
2:20 PM64 °FScattered clouds.13 mph64%29.74 "HgN/A
1:50 PM63 °FScattered showers. Scattered clouds.10 mph68%29.74 "HgN/A
1:20 PM59 °FSprinkles. Scattered clouds.14 mph77%29.77 "HgN/A
Weather by CustomWeather, © 2015

See weather overviewHow to use our weather pages